Flag for Canada Weather past 2 weeks in Rouyn-Noranda, Quebec, Canada

Now
59 °F

Partly sunny.


Feels Like: 58 °F
Forecast: 51 / 69 °F
Wind: 8 mph from Southeast

Location: Rouyn Airport

Current Time: Aug 20, 2014 at 8:48:19 AM

Latest Report: Aug 20, 2014 at 8:00 AM


Visibility: 15 mi

Pressure: 29.98 "Hg

Humidity: 77%

Dew point: 52 °F

Location of Rouyn-NorandaLocation

Historic Weather in Rouyn-Noranda — Graph

°F

Rouyn-Noranda temperature yesterday

Maximum temperature yesterday: 66 °F (at 1:00 PM)
Minimum temperature yesterday: 39 °F (at 5:00 AM)
Average temperature yesterday: 55 °F

Past Weeks' High & Low Weather Summary

 TemperatureHumidityPressure
High84 °F (Aug 10, 3:00 PM)100% (Aug 5, 7:00 AM)30.22 "Hg (Aug 5, 7:00 AM)
Low34 °F (Aug 18, 5:00 AM)35% (Aug 18, 5:00 PM)29.58 "Hg (Aug 13, 6:00 AM)
Average59 °F79%29.95 "Hg
* Reported Aug 5 7:00 AM — Aug 20 7:00 AM, Rouyn-Noranda, Weather by CustomWeather, © 2014

Note: Actual official high and low records may vary slightly from our data, if they occured in-between our weather recording intervals... More about our weather records

Advertising

Rouyn-Noranda weather history for previous 24 hours

 ConditionsComfort  
Time TempWeatherWind HumidityBarometerVisibility
7:00 AM
Aug 20
59 °FPassing clouds.8 mph77%29.97 "Hg15 mi
6:00 AM59 °FPassing clouds.8 mph77%29.95 "Hg15 mi
5:00 AM61 °FOvercast.8 mph72%29.94 "Hg15 mi
4:00 AM61 °FOvercast.8 mph72%29.93 "Hg15 mi
3:00 AM61 °FOvercast.10 mph72%29.93 "Hg15 mi
2:00 AM61 °FOvercast.9 mph72%29.93 "Hg15 mi
1:00 AM61 °FOvercast.9 mph72%29.93 "Hg15 mi
12:00 AM61 °FOvercast.7 mph72%29.93 "Hg15 mi
11:00 PM
Aug 19
61 °FOvercast.8 mph72%29.93 "Hg15 mi
10:00 PM61 °FSprinkles. Passing clouds.7 mph77%29.93 "Hg15 mi
9:00 PM61 °FPartly sunny.7 mph77%29.93 "Hg15 mi
8:00 PM61 °FBroken clouds.6 mph77%29.93 "Hg15 mi
7:00 PM63 °FMore clouds than sun.5 mph73%29.93 "Hg15 mi
6:00 PM64 °FBroken clouds.5 mph64%29.92 "Hg15 mi
5:00 PM66 °FPartly sunny.8 mph56%29.92 "Hg15 mi
4:00 PM66 °FPartly sunny.7 mph52%29.92 "Hg15 mi
3:00 PM64 °FPartly sunny.6 mph56%29.93 "Hg15 mi
2:00 PM64 °FBroken clouds.8 mph56%29.94 "Hg15 mi
1:00 PM66 °FBroken clouds.7 mph46%29.94 "Hg15 mi
12:00 PM63 °FPartly sunny.3 mph59%29.95 "Hg15 mi
11:00 AM64 °FBroken clouds.6 mph52%29.95 "Hg15 mi
10:00 AM59 °FPartly sunny.7 mph68%29.95 "Hg15 mi
9:00 AM54 °FBroken clouds.6 mph77%29.95 "Hg15 mi
8:00 AM50 °FBroken clouds.No wind88%29.94 "Hg15 mi
Weather by CustomWeather, © 2014

See weather overviewHow to use our weather pages